Wendover, UT

7:24 PM MDT on September 25, 2016 (GMT -0600)
Wendover

Weather History for KENV - July, 2013

Change the Weather History Date:

Friday, July 5, 2013

  Actual Average Record
Temperature  
Mean Temperature 76 °F -  
Max Temperature 86 °F 92 °F 105 °F (1981)
Min Temperature 66 °F 65 °F 49 °F (1938)
Cooling Degree Days 11    
Growing Degree Days 26 (Base 50)    
Moisture  
Dew Point 55 °F    
Average Humidity 53    
Maximum Humidity 73    
Minimum Humidity 31    
Precipitation  
Precipitation 0.02 in - - ()
Sea Level Pressure  
Sea Level Pressure 29.94 in    
Wind  
Wind Speed 11 mph (ENE)    
Max Wind Speed 28 mph    
Max Gust Speed 39 mph    
Visibility 10 miles    
Events Thunderstorm    
Averages and records for this station are not official NWS values.
T = Trace of Precipitation, MM = Missing Value Source: NWS Daily Summary

Daily Weather History Graph

Daily Weather History Graph

Search for Another Location

Airport or City:

Trip Planner

Search our weather history database for the weather conditions in past years. The results will help you decide how hot, cold, wet, or windy it might be!

Date:

Astronomy

Jul. 05, 2013 Rise Set
Actual Time 6:11 AM MDT 9:10 PM MDT
Civil Twilight 5:38 AM MDT 9:43 PM MDT
Nautical Twilight 4:56 AM MDT 10:25 PM MDT
Astronomical Twilight 4:07 AM MDT 11:13 PM MDT
Moon 4:13 AM MDT (7/5) 7:08 PM MDT (7/5)
Length of Visible Light 16h 05m
Length of Day
14h 59m
Waning Crescent, 6% of the Moon is Illuminated
Jul 5
Waning Crescent
Jul 8
New
Jul 15
First Quarter
Jul 22
Full
Jul 29
Last Quarter

Hourly Weather History & Observations

Time (MDT) Temp. Heat Index Dew Point Humidity Pressure Visibility Wind Dir Wind Speed Gust Speed Precip Events Conditions
12:15 AM 73.4 °F - 53.6 °F 50% 30.01 in 10.0 mi NNW 27.6 mph 36.8 mph N/A   Overcast
12:35 AM 73.4 °F - 51.8 °F 47% 30.03 in 10.0 mi NNW 20.7 mph 36.8 mph N/A   Overcast
12:55 AM 73.4 °F - 51.8 °F 47% 30.02 in 10.0 mi North 20.7 mph 29.9 mph N/A   Partly Cloudy
1:15 AM 73.4 °F - 53.6 °F 50% 30.02 in 10.0 mi NNE 17.3 mph 23.0 mph N/A   Clear
1:35 AM 69.8 °F - 55.4 °F 60% 30.01 in 10.0 mi NE 11.5 mph 17.3 mph N/A   Clear
1:55 AM 69.8 °F - 55.4 °F 60% 30.01 in 10.0 mi North 16.1 mph - N/A   Clear
2:15 AM 69.8 °F - 53.6 °F 56% 30.01 in 10.0 mi NNE 11.5 mph - N/A   Partly Cloudy
2:35 AM 69.8 °F - 53.6 °F 56% 30.01 in 10.0 mi NNE 6.9 mph - N/A   Clear
2:55 AM 69.8 °F - 55.4 °F 60% 30.00 in 10.0 mi SE 6.9 mph - N/A   Clear
3:15 AM 69.8 °F - 55.4 °F 60% 30.01 in 10.0 mi SW 8.1 mph - N/A   Clear
3:35 AM 69.8 °F - 57.2 °F 64% 30.01 in 10.0 mi SW 9.2 mph - N/A   Clear
3:55 AM 69.8 °F - 57.2 °F 64% 30.00 in 10.0 mi South 9.2 mph - N/A   Clear
4:15 AM 69.8 °F - 55.4 °F 60% 30.00 in 10.0 mi WSW 5.8 mph - N/A   Clear
4:35 AM 69.8 °F - 55.4 °F 60% 29.98 in 10.0 mi South 4.6 mph - N/A   Clear
4:55 AM 69.8 °F - 57.2 °F 64% 29.98 in 10.0 mi South 4.6 mph - N/A   Clear
5:15 AM 68.0 °F - 57.2 °F 68% 29.98 in 10.0 mi WNW 6.9 mph - N/A   Clear
5:35 AM 68.0 °F - 57.2 °F 68% 29.98 in 10.0 mi NW 5.8 mph - N/A   Clear
5:55 AM 66.2 °F - 57.2 °F 73% 29.97 in 10.0 mi WNW 8.1 mph - N/A   Clear
6:15 AM 66.2 °F - 55.4 °F 68% 29.97 in 10.0 mi WNW 6.9 mph - N/A   Clear
6:35 AM 68.0 °F - 55.4 °F 64% 29.96 in 10.0 mi WNW 6.9 mph - N/A   Clear
6:55 AM 68.0 °F - 55.4 °F 64% 29.96 in 10.0 mi WNW 4.6 mph - N/A   Clear
7:15 AM 69.8 °F - 55.4 °F 60% 29.96 in 10.0 mi South 3.5 mph - N/A   Clear
7:35 AM 69.8 °F - 57.2 °F 64% 29.96 in 10.0 mi Calm Calm - N/A   Clear
7:55 AM 71.6 °F - 55.4 °F 57% 29.96 in 10.0 mi Calm Calm - N/A   Clear
8:15 AM 71.6 °F - 57.2 °F 60% 29.97 in 10.0 mi SE 4.6 mph - N/A   Clear
8:35 AM 71.6 °F - 55.4 °F 57% 29.97 in 10.0 mi East 8.1 mph - N/A   Clear
8:55 AM 73.4 °F - 55.4 °F 53% 29.97 in 10.0 mi SE 3.5 mph - N/A   Clear
9:15 AM 73.4 °F - 53.6 °F 50% 29.98 in 10.0 mi SSE 4.6 mph - N/A   Clear
9:35 AM 75.2 °F - 53.6 °F 47% 29.98 in 10.0 mi South 3.5 mph - N/A   Clear
9:55 AM 73.4 °F - 51.8 °F 47% 29.97 in 10.0 mi Calm Calm - N/A   Clear
10:15 AM 75.2 °F - 53.6 °F 47% 29.97 in 10.0 mi Calm Calm - N/A   Clear
10:35 AM 77.0 °F - 53.6 °F 44% 29.96 in 10.0 mi SE 3.5 mph - N/A   Clear
11:15 AM 78.8 °F - 53.6 °F 42% 29.96 in 10.0 mi SE 4.6 mph - N/A   Clear
11:35 AM 78.8 °F - 53.6 °F 42% 29.95 in 10.0 mi ESE 6.9 mph - N/A   Clear
11:55 AM 78.8 °F - 53.6 °F 42% 29.95 in 10.0 mi East 4.6 mph - N/A   Clear
12:15 PM 80.6 °F 80.3 °F 53.6 °F 39% 29.94 in 10.0 mi ENE 8.1 mph - N/A   Clear
12:35 PM 80.6 °F 80.3 °F 53.6 °F 39% 29.94 in 10.0 mi SSE 6.9 mph - N/A   Clear
12:55 PM 82.4 °F 81.4 °F 53.6 °F 37% 29.93 in 10.0 mi SE 6.9 mph - N/A   Clear
1:15 PM 82.4 °F 81.4 °F 53.6 °F 37% 29.93 in 10.0 mi East 9.2 mph - N/A   Clear
1:35 PM 82.4 °F 81.4 °F 53.6 °F 37% 29.92 in 10.0 mi ESE 6.9 mph - N/A   Clear
1:55 PM 84.2 °F 82.8 °F 53.6 °F 35% 29.90 in 10.0 mi SE 8.1 mph - N/A   Clear
2:35 PM 82.4 °F - 51.8 °F 35% 29.89 in 10.0 mi SSE 3.5 mph - N/A   Clear
2:55 PM 80.6 °F 80.3 °F 53.6 °F 39% 29.90 in 10.0 mi WNW 6.9 mph - N/A   Mostly Cloudy
3:15 PM 82.4 °F 81.7 °F 55.4 °F 39% 29.86 in 10.0 mi NE 4.6 mph - N/A   Partly Cloudy
3:55 PM 86.0 °F - 51.8 °F 31% 29.85 in 10.0 mi SSE 6.9 mph - N/A   Clear
4:15 PM 84.2 °F - 51.8 °F 33% 29.86 in 10.0 mi SSW 8.1 mph - N/A Thunderstorm Partly Cloudy
4:35 PM 77.0 °F - 53.6 °F 44% 29.95 in 7.0 mi WSW 19.6 mph 39.1 mph N/A Thunderstorm Thunderstorm
4:55 PM 66.2 °F - 57.2 °F 73% 29.97 in 10.0 mi NNW 12.7 mph 36.8 mph 0.01 in Thunderstorm Thunderstorm
5:15 PM 71.6 °F - 53.6 °F 53% 29.90 in 10.0 mi ENE 5.8 mph - 0.01 in Thunderstorm Thunderstorm
5:35 PM 71.6 °F - 59.0 °F 64% 29.86 in 10.0 mi NE 6.9 mph - 0.01 in   Partly Cloudy
5:55 PM 71.6 °F - 59.0 °F 64% 29.83 in 10.0 mi NE 10.4 mph - 0.01 in   Clear
6:15 PM 71.6 °F - 57.2 °F 60% 29.85 in 10.0 mi NE 11.5 mph - N/A   Clear
6:35 PM 71.6 °F - 57.2 °F 60% 29.86 in 10.0 mi East 6.9 mph - N/A   Clear
6:55 PM 73.4 °F - 55.4 °F 53% 29.83 in 10.0 mi NE 8.1 mph - N/A   Clear
7:15 PM 75.2 °F - 55.4 °F 50% 29.83 in 10.0 mi Calm Calm - N/A   Clear
7:35 PM 75.2 °F - 59.0 °F 57% 29.82 in 10.0 mi NE 10.4 mph - N/A   Clear
7:55 PM 73.4 °F - 59.0 °F 61% 29.84 in 10.0 mi NE 9.2 mph - N/A   Clear
8:15 PM 75.2 °F - 57.2 °F 53% 29.86 in 10.0 mi NNW 5.8 mph - N/A   Clear
8:35 PM 80.6 °F - 51.8 °F 37% 29.87 in 10.0 mi West 3.5 mph - N/A   Mostly Cloudy
8:55 PM 78.8 °F - 55.4 °F 44% 29.85 in 10.0 mi NE 24.2 mph 32.2 mph N/A   Mostly Cloudy
9:15 PM 73.4 °F - 55.4 °F 53% 29.87 in 10.0 mi ENE 19.6 mph 25.3 mph N/A   Partly Cloudy
9:35 PM 73.4 °F - 57.2 °F 57% 29.89 in 10.0 mi ENE 17.3 mph 24.2 mph N/A   Clear
9:55 PM 73.4 °F - 57.2 °F 57% 29.90 in 10.0 mi NNE 12.7 mph - N/A   Clear
10:15 PM 71.6 °F - 59.0 °F 64% 29.91 in 10.0 mi NE 13.8 mph - N/A   Clear
10:35 PM 71.6 °F - 57.2 °F 60% 29.94 in 10.0 mi NE 10.4 mph - N/A   Clear
10:55 PM 71.6 °F - 57.2 °F 60% 29.94 in 10.0 mi NE 11.5 mph - N/A   Clear
11:15 PM 71.6 °F - 57.2 °F 60% 29.93 in 10.0 mi NE 11.5 mph - N/A   Clear
11:35 PM 73.4 °F - 53.6 °F 50% 29.93 in 10.0 mi North 4.6 mph - N/A   Clear
11:55 PM 69.8 °F - 57.2 °F 64% 29.94 in 10.0 mi West 8.1 mph - N/A   Clear